Weather History for Bierset, Belgium

Change the Weather History Date:

Tuesday, January 8, 2013

  Actual Average Record
Temperature  
Mean Temperature 40 °F -  
Max Temperature 43 °F 40 °F 51 °F (2007)
Min Temperature 38 °F 32 °F 12 °F (2009)
Degree Days  
Heating Degree Days 24    
Moisture  
Dew Point 38 °F    
Average Humidity 89    
Maximum Humidity 100    
Minimum Humidity 78    
Precipitation  
Precipitation 0.00 in - - ()
Sea Level Pressure  
Sea Level Pressure 30.30 in    
Wind  
Wind Speed 9 mph ()    
Max Wind Speed 16 mph    
Max Gust Speed -    
Visibility 4.8 miles    
Events      
Averages and records for this station are not official NWS values.
T = Trace of Precipitation, MM = Missing Value Source: Averaged Metar Reports

Daily Weather History Graph

Daily Weather History Graph

Search for Another Location

Airport:

Trip Planner

Search our weather history database for the weather conditions in past years. The results will help you decide how hot, cold, wet, or windy it might be!

Date:

Astronomy

Jan. 08, 2013 Rise Set
Actual Time 8:37 AM CET 4:52 PM CET
Civil Twilight 7:59 AM CET 5:30 PM CET
Nautical Twilight 7:17 AM CET 6:12 PM CET
Astronomical Twilight 6:38 AM CET 6:51 PM CET
Moon 4:49 AM CET (1/8) 1:42 PM CET (1/8)
Length of Visible Light 9h 31m
Length of Day
8h 14m
Waning Crescent, 16% of the Moon is Illuminated
Jan 8
Waning Crescent
Jan 11
New
Jan 19
First Quarter
Jan 27
Full
Feb 3
Last Quarter

Hourly Weather History & Observations

Time (CET) Temp. Windchill Dew Point Humidity Pressure Visibility Wind Dir Wind Speed Gust Speed Precip Events Conditions
12:20 AM 39.2 °F 33.6 °F 37.4 °F 93% 30.33 in 3.7 mi WSW 8.1 mph - N/A   Mostly Cloudy
12:50 AM 39.2 °F 35.0 °F 37.4 °F 93% 30.30 in 3.7 mi WSW 5.8 mph - N/A   Mostly Cloudy
1:00 AM 39 °F - 38 °F 92% 30.35 in 4 mi WSW 6.7 mph - -   Overcast
1:20 AM 39.2 °F 34.2 °F 37.4 °F 93% 30.33 in 2.8 mi WSW 6.9 mph - N/A   Mostly Cloudy
1:50 AM 39.2 °F 34.2 °F 37.4 °F 93% 30.33 in 3.1 mi West 6.9 mph - N/A   Mostly Cloudy
2:20 AM 39.2 °F 32.5 °F 37.4 °F 93% 30.30 in 3.1 mi SW 10.4 mph - N/A   Mostly Cloudy
2:50 AM 39.2 °F 33.0 °F 37.4 °F 93% 30.30 in 5.0 mi WSW 9.2 mph - N/A   Mostly Cloudy
3:20 AM 39.2 °F 32.0 °F 37.4 °F 93% 30.30 in 3.1 mi SSW 11.5 mph - N/A   Mostly Cloudy
3:50 AM 39.2 °F 33.0 °F 37.4 °F 93% 30.30 in 3.1 mi SSW 9.2 mph - N/A   Mostly Cloudy
4:00 AM 38 °F - 37 °F 93% 30.34 in 3 mi SSW 8.9 mph - -   Mist
4:20 AM 39.2 °F 33.0 °F 37.4 °F 93% 30.30 in 2.5 mi SW 9.2 mph - N/A   Mostly Cloudy
4:50 AM 39.2 °F 33.0 °F 37.4 °F 93% 30.30 in 1.7 mi SW 9.2 mph - N/A   Mostly Cloudy
5:20 AM 39.2 °F 33.0 °F 37.4 °F 93% 30.30 in 1.4 mi SW 9.2 mph - N/A   Mostly Cloudy
5:50 AM 39.2 °F 33.0 °F 37.4 °F 93% 30.30 in 1.7 mi SW 9.2 mph - N/A   Mostly Cloudy
6:20 AM 39.2 °F 32.5 °F 37.4 °F 93% 30.27 in 2.2 mi SSW 10.4 mph - N/A   Mostly Cloudy
6:50 AM 39.2 °F 32.5 °F 39.2 °F 100% 30.30 in - SW 10.4 mph - N/A   Mostly Cloudy
7:20 AM 39.2 °F 32.5 °F 37.4 °F 93% 30.30 in - SW 10.4 mph - N/A   Mostly Cloudy
7:50 AM 39.2 °F 33.0 °F 37.4 °F 93% 30.30 in - SW 9.2 mph - N/A   Mostly Cloudy
8:20 AM 41.0 °F 34.7 °F 37.4 °F 87% 30.30 in - SW 10.4 mph - N/A   Mostly Cloudy
8:50 AM 41.0 °F 34.7 °F 39.2 °F 93% 30.30 in - SW 10.4 mph - N/A   Mostly Cloudy
9:20 AM 41.0 °F 34.7 °F 39.2 °F 93% 30.30 in - SW 10.4 mph - N/A   Mostly Cloudy
9:50 AM 41.0 °F 34.7 °F 37.4 °F 87% 30.30 in - SW 10.4 mph - N/A   Mostly Cloudy
10:00 AM 40 °F - 38 °F 91% 30.35 in 3 mi SW 11.2 mph - -   Mist
10:20 AM 41.0 °F 35.2 °F 39.2 °F 93% 30.30 in - SW 9.2 mph - N/A   Mostly Cloudy
10:50 AM 41.0 °F 34.7 °F 39.2 °F 93% 30.30 in - SW 10.4 mph - N/A   Mostly Cloudy
11:20 AM 41.0 °F 34.7 °F 39.2 °F 93% 30.30 in 3.1 mi SSW 10.4 mph - N/A   Mostly Cloudy
11:50 AM 41.0 °F 34.7 °F 39.2 °F 93% 30.30 in 3.1 mi SW 10.4 mph - N/A   Mostly Cloudy
12:20 PM 42.8 °F 37.0 °F 39.2 °F 87% 30.30 in 3.7 mi SW 10.4 mph - N/A   Mostly Cloudy
12:50 PM 42.8 °F 37.0 °F 39.2 °F 87% 30.30 in 5.0 mi SW 10.4 mph - N/A   Mostly Cloudy
1:20 PM 42.8 °F 36.6 °F 39.2 °F 87% 30.30 in 5.0 mi SW 11.5 mph - N/A   Mostly Cloudy
1:50 PM 42.8 °F 37.0 °F 39.2 °F 87% 30.30 in 5.6 mi SW 10.4 mph - N/A   Mostly Cloudy
2:20 PM 42.8 °F 36.6 °F 39.2 °F 87% 30.30 in 5.6 mi SW 11.5 mph - N/A   Mostly Cloudy
2:50 PM 42.8 °F 37.0 °F 39.2 °F 87% 30.30 in 6.2 mi WSW 10.4 mph - N/A   Mostly Cloudy
3:20 PM 42.8 °F 36.6 °F 39.2 °F 87% 30.30 in 6.2 mi SW 11.5 mph - N/A   Mostly Cloudy
3:50 PM 42.8 °F 37.5 °F 39.2 °F 87% 30.30 in 6.2 mi SW 9.2 mph - N/A   Mostly Cloudy
4:00 PM 43 °F - 39 °F 81% 30.32 in 7 mi SW 8.9 mph - -   Mostly Cloudy
4:20 PM 42.8 °F 37.5 °F 39.2 °F 87% 30.30 in 6.2 mi SW 9.2 mph - N/A   Mostly Cloudy
4:50 PM 42.8 °F 37.0 °F 39.2 °F 87% 30.30 in 6.2 mi SW 10.4 mph - N/A   Mostly Cloudy
5:20 PM 42.8 °F 36.6 °F 39.2 °F 87% 30.30 in 6.2 mi SW 11.5 mph - N/A   Mostly Cloudy
5:50 PM 42.8 °F 36.6 °F 39.2 °F 87% 30.30 in 6.2 mi SW 11.5 mph - N/A   Mostly Cloudy
6:20 PM 42.8 °F 36.6 °F 39.2 °F 87% 30.30 in 6.2 mi SW 11.5 mph - N/A   Mostly Cloudy
6:50 PM 42.8 °F 36.6 °F 37.4 °F 81% 30.30 in 6.2 mi SW 11.5 mph - N/A   Mostly Cloudy
7:00 PM 42 °F - 38 °F 82% 30.32 in 7 mi SW 11.2 mph - -   Mostly Cloudy
7:20 PM 42.8 °F 36.6 °F 37.4 °F 81% 30.30 in 6.2 mi SW 11.5 mph - N/A   Mostly Cloudy
7:50 PM 42.8 °F 37.0 °F 37.4 °F 81% 30.30 in 6.2 mi SW 10.4 mph - N/A   Mostly Cloudy
8:20 PM 41.0 °F 33.5 °F 37.4 °F 87% 30.30 in 6.2 mi SSW 13.8 mph - N/A   Mostly Cloudy
8:50 PM 41.0 °F 32.8 °F 35.6 °F 81% 30.30 in 6.2 mi SSW 16.1 mph - N/A   Mostly Cloudy
9:20 PM 41.0 °F 33.1 °F 35.6 °F 81% 30.30 in 6.2 mi SSW 15.0 mph - N/A   Mostly Cloudy
9:50 PM 41.0 °F 34.3 °F 35.6 °F 81% 30.30 in 6.2 mi SSW 11.5 mph - N/A   Mostly Cloudy
10:00 PM 40 °F - 36 °F 78% 30.33 in 8 mi SSW 11.2 mph - -   Overcast
10:20 PM 41.0 °F 35.2 °F 35.6 °F 81% 30.27 in 6.2 mi South 9.2 mph - N/A   Mostly Cloudy
10:50 PM 39.2 °F 33.0 °F 35.6 °F 87% 30.27 in 6.2 mi South 9.2 mph - N/A   Mostly Cloudy
11:20 PM 39.2 °F 32.5 °F 35.6 °F 87% 30.27 in 6.2 mi South 10.4 mph - N/A   Mostly Cloudy
11:50 PM 39.2 °F 32.5 °F 35.6 °F 87% 30.27 in 6.2 mi SSW 10.4 mph - N/A   Mostly Cloudy